Theta_e
347 352 353 343 356 354 357 356 350 349 350 349 346 350 350 350 349 349 347 345 345 344 344 343 343 340 338 337 331 333 334 334 334 332 333 333 331 334 335 334 334 335 335 335 334 339 335 338 339
347 354 344 341 356 358 358 351 354 351 351 348 350 349 348 349 348 348 346 345 344 344 343 342 340 337 333 332 331 332 334 334 333 332 332 333 330 332 334 332 333 334 334 334 333 333 333 333 338
348 352 344 347 354 358 357 351 351 352 351 350 350 349 349 349 348 349 347 346 345 343 341 340 339 336 333 332 331 332 334 334 333 331 330 333 331 333 332 331 333 334 336 335 335 332 334 337 335
353 355 353 360 355 351 351 348 349 351 351 351 349 349 349 350 348 348 347 349 345 342 341 340 340 339 337 335 334 333 334 334 333 331 330 332 332 334 332 331 332 335 337 335 337 331 333 337 335
356 354 357 361 351 348 345 346 349 350 351 350 350 351 349 348 347 347 347 347 347 345 343 342 341 341 340 337 335 335 334 332 331 331 332 333 333 333 332 335 335 338 336 337 338 337 332 335 338
358 358 358 358 348 348 345 346 348 350 351 352 351 349 350 347 348 348 347 349 345 342 341 341 341 339 338 338 336 334 332 331 331 331 333 334 333 332 337 337 338 339 340 339 340 339 335 338 337
359 352 356 352 348 342 346 345 350 350 350 350 350 349 349 349 349 347 348 348 348 343 343 339 337 337 336 334 332 331 331 331 332 333 333 334 333 341 343 344 342 341 341 339 339 339 338 339 341
344 348 352 347 341 339 344 344 349 350 350 349 350 353 351 350 349 349 351 351 350 346 344 342 339 336 336 333 332 331 330 331 332 332 334 334 346 346 348 345 341 340 340 340 337 339 345 345 346
342 348 351 347 339 338 341 344 347 350 349 349 349 350 348 350 349 351 351 352 351 350 343 342 341 336 332 330 330 330 330 331 331 332 335 343 341 347 345 347 348 348 345 345 340 345 345 346 346
347 348 345 343 341 337 341 345 345 348 348 348 348 349 350 350 351 351 351 350 351 351 346 344 342 337 332 331 331 331 331 331 331 334 342 347 348 346 344 348 348 345 346 348 349 341 342 345 345
345 347 342 342 342 342 338 339 341 341 348 348 349 349 351 351 351 350 351 350 351 350 349 347 342 342 339 333 333 332 335 336 341 341 343 346 350 348 349 349 349 346 346 349 346 347 346 344 347
343 342 341 341 342 340 338 339 341 341 343 348 348 346 347 352 352 350 351 349 350 347 346 349 348 344 346 343 345 340 346 344 348 349 349 341 345 345 347 347 347 346 346 347 347 346 346 343 346
343 342 340 340 341 341 339 338 341 342 347 348 348 346 347 348 351 352 351 349 350 348 350 351 349 345 348 349 345 348 350 348 349 349 347 347 343 347 349 347 347 346 347 346 347 346 344 344 343
342 343 341 338 340 342 340 338 342 343 349 349 349 347 347 346 346 351 349 347 351 349 350 352 350 348 347 350 352 352 351 350 349 350 350 349 348 344 347 346 345 346 347 347 347 346 343 342 344
333 335 342 340 336 340 341 339 341 342 347 349 349 348 348 347 345 346 349 348 350 348 350 352 352 349 344 349 352 348 349 350 348 347 348 350 351 349 344 345 345 346 346 346 346 347 343 342 342
330 329 330 333 334 337 340 342 338 342 345 347 348 348 348 347 346 345 348 347 349 346 350 351 351 350 348 345 349 348 348 349 347 348 347 349 349 350 346 345 345 347 349 347 346 346 344 344 341
325 328 329 332 335 337 338 341 340 340 344 344 346 346 346 347 346 346 346 347 349 348 349 350 349 350 350 345 345 347 345 345 346 348 349 350 348 350 346 344 345 349 348 349 346 345 345 343 340
325 328 329 332 337 337 339 341 340 339 341 344 345 345 345 345 346 346 346 348 348 348 349 349 350 350 352 351 349 344 346 351 350 347 347 348 347 349 347 347 344 348 348 346 346 346 342 334 337
327 329 330 332 338 339 342 341 340 340 340 341 344 344 345 345 345 345 346 347 348 348 349 350 350 351 352 352 351 345 348 346 348 349 349 348 348 349 349 346 347 346 344 345 343 344 337 337 337
327 328 330 332 338 340 345 344 341 338 337 340 342 344 344 345 345 345 346 347 348 348 348 349 349 349 351 354 352 351 346 347 346 345 350 353 348 347 345 345 344 345 345 344 345 336 328 338 337
327 327 330 333 340 341 345 349 341 339 341 342 342 343 344 344 345 345 346 347 347 347 348 348 349 350 350 354 353 353 347 347 353 348 349 350 348 348 348 346 346 346 349 344 339 333 334 339 337
326 329 331 332 339 341 344 350 346 342 343 343 341 342 342 344 344 344 347 346 347 347 348 349 349 350 350 351 352 351 345 353 354 349 350 350 349 349 342 348 346 348 349 342 333 327 327 336 338
326 329 331 331 332 341 342 342 343 345 346 345 341 341 341 342 344 345 345 347 347 348 348 348 349 350 350 350 351 348 349 351 352 346 345 345 352 348 345 348 346 346 345 333 334 330 321 336 336
326 327 329 330 331 337 341 341 342 341 346 344 343 343 341 341 342 343 345 346 347 348 348 348 348 349 351 352 349 349 349 349 348 346 348 346 349 347 345 346 346 340 337 330 333 327 319 323 335
324 323 328 330 332 332 340 342 342 341 342 345 345 344 343 342 342 342 346 347 348 348 349 349 349 350 351 352 350 348 353 350 350 350 350 348 347 347 344 341 340 340 322 325 329 323 318 320 327
323 323 326 329 332 332 331 342 343 342 342 345 343 343 344 344 342 342 342 345 348 348 348 350 351 350 351 352 353 346 349 354 348 351 351 349 348 344 339 335 331 338 323 319 324 322 320 321 318
324 323 323 323 327 331 333 333 335 341 342 341 341 342 342 342 345 343 343 343 346 348 348 349 352 351 351 353 353 349 346 350 347 348 350 351 350 347 346 346 346 339 326 321 322 321 320 325 329
325 325 323 323 324 329 330 333 337 340 343 341 341 340 342 342 342 345 344 343 344 345 346 349 350 351 352 352 353 353 343 346 344 347 348 353 353 347 348 348 346 345 342 328 322 322 323 326 329
323 324 322 322 324 327 329 331 334 342 343 341 341 341 342 342 344 345 346 344 344 346 347 348 350 352 353 353 352 353 350 341 344 342 343 347 353 348 345 345 346 344 342 339 322 322 322 329 332
327 324 321 324 325 326 325 329 332 333 342 341 341 341 340 341 342 344 347 346 346 346 349 348 349 351 352 352 352 351 351 346 341 340 336 337 346 351 349 344 344 344 343 340 326 321 322 328 333
Wind_Speed
10 16 11 2 1 1 3 3 8 11 6 12 17 9 6 6 4 8 18 24 25 27 27 28 27 27 27 28 29 27 24 22 20 19 18 17 17 17 16 14 13 13 12 12 11 10 11 11 12
16 18 9 6 3 1 4 4 5 13 18 32 18 12 20 11 23 23 26 25 25 26 27 28 26 26 26 27 27 25 23 20 18 18 16 15 16 15 14 13 12 12 11 11 11 10 10 10 10
21 19 8 1 4 3 4 8 8 32 30 16 10 15 10 17 23 27 28 26 23 27 27 26 24 25 26 26 25 23 21 19 17 16 14 14 14 13 12 12 11 10 10 10 9 10 11 10 10
16 13 10 4 10 6 4 10 18 24 25 23 25 13 17 22 27 35 31 29 23 22 24 25 24 24 24 24 23 22 20 17 15 13 12 12 11 11 11 10 9 9 9 9 9 10 11 12 11
18 10 3 5 10 7 7 19 28 24 25 30 33 23 19 23 32 34 31 27 22 21 22 24 23 23 22 22 22 20 18 16 13 12 11 11 10 10 10 10 9 8 9 9 10 11 12 13 13
9 5 2 10 6 11 7 28 32 29 34 31 33 29 19 33 34 31 27 25 20 24 23 24 23 22 21 21 20 19 17 14 13 12 10 10 10 10 10 12 11 10 10 10 10 11 12 15 15
6 8 9 10 9 11 16 29 26 29 31 22 35 25 27 34 27 27 26 20 16 21 23 23 23 22 21 20 20 18 15 13 13 11 9 9 8 10 10 9 15 13 10 10 10 11 12 15 16
9 3 8 8 6 10 19 17 35 36 22 39 47 12 23 35 29 27 28 24 19 18 21 22 22 22 21 20 18 17 15 14 12 9 8 8 8 6 9 11 12 12 11 12 10 12 12 14 13
6 3 7 7 11 6 18 18 32 37 39 29 15 38 35 35 33 34 31 30 18 16 18 21 22 21 20 19 18 16 14 12 10 8 7 6 8 9 10 8 12 10 10 11 11 8 9 9 9
5 2 6 10 9 3 19 29 28 22 21 22 32 30 38 39 39 37 36 31 23 19 16 17 20 20 20 18 16 13 11 9 7 8 6 6 4 6 5 4 7 9 8 8 7 7 4 7 8
9 5 8 20 19 16 17 21 28 20 14 31 34 36 43 40 40 36 34 31 30 22 16 15 17 18 16 17 12 9 8 8 9 7 3 2 2 5 7 3 4 7 9 9 9 9 6 6 8
8 17 11 10 12 10 13 25 20 25 23 38 42 38 36 42 41 40 39 33 33 24 23 20 16 17 18 15 5 11 9 7 5 2 4 1 2 3 1 4 7 7 8 8 10 7 5 8 6
9 12 14 27 29 24 27 17 21 20 40 40 38 35 34 35 41 39 32 27 28 22 28 25 21 20 17 15 10 8 6 6 5 4 1 1 5 3 6 5 5 6 4 6 8 13 12 7 5
21 12 23 16 20 25 16 14 19 32 42 42 39 35 31 32 32 36 32 31 27 24 27 29 25 23 19 18 14 11 9 10 6 7 4 5 2 6 8 7 6 5 5 6 9 11 6 4 5
25 12 21 17 12 13 26 10 16 34 40 40 39 35 32 30 29 29 37 32 27 25 29 30 31 27 23 23 22 20 16 13 13 8 3 5 6 6 12 13 8 7 5 9 5 6 2 3 6
13 8 9 12 10 9 18 7 15 32 38 35 37 35 34 34 32 30 31 29 28 25 25 32 30 25 19 28 26 22 20 14 11 10 10 11 13 9 7 7 8 4 7 9 8 7 3 5 5
7 9 10 11 12 8 9 10 16 31 34 33 36 35 34 35 35 34 30 32 30 27 30 29 27 23 19 16 29 24 21 18 12 14 12 11 10 9 9 7 7 7 7 8 10 4 2 6 8
9 8 11 11 8 15 12 6 12 25 29 31 36 37 36 38 38 37 35 32 32 30 31 31 26 23 22 17 13 15 19 15 15 16 12 13 13 13 9 5 6 6 8 10 3 3 7 7 2
15 14 16 13 11 10 9 10 13 22 17 18 34 37 38 40 36 38 36 35 33 32 32 34 31 27 23 25 20 17 19 19 18 14 14 14 15 12 10 10 12 6 4 5 3 5 11 4 3
20 19 20 15 19 10 18 12 14 14 21 24 31 36 39 40 40 38 39 38 36 35 35 35 34 31 27 26 23 19 17 18 14 14 17 16 13 11 11 7 7 10 6 7 5 7 6 5 2
22 21 16 8 5 5 13 1 8 11 18 26 28 41 42 45 44 42 44 41 40 38 37 36 35 32 32 25 24 20 15 18 14 17 18 16 12 10 11 10 9 10 11 9 6 3 12 8 5
18 23 20 18 13 10 14 6 14 16 17 16 28 37 40 44 47 47 46 45 44 42 39 37 36 34 35 32 28 24 23 21 16 11 15 16 15 11 10 11 12 13 15 14 11 3 10 12 11
23 14 19 20 15 14 13 6 7 18 18 20 18 36 40 45 48 49 51 50 47 45 43 41 38 36 33 37 35 29 22 22 17 13 14 14 18 12 10 14 17 16 15 14 9 7 8 16 12
14 15 18 17 11 6 19 12 9 8 21 15 11 24 42 43 49 49 52 51 49 46 45 44 41 39 34 30 34 31 25 22 22 21 21 20 20 15 15 19 16 15 17 15 11 9 11 13 17
20 11 12 10 11 10 14 16 10 12 12 21 24 32 35 47 46 48 48 50 53 50 48 47 45 42 38 32 29 36 31 28 24 22 21 22 19 19 19 23 19 16 17 16 12 10 11 15 14
18 17 13 12 12 10 9 10 10 18 19 41 35 28 34 34 47 49 52 55 56 54 51 49 49 44 41 36 32 32 37 32 31 27 24 24 24 20 18 18 18 15 17 16 12 11 12 11 13
9 20 13 5 9 6 8 10 10 20 15 21 27 31 24 25 32 52 56 55 57 56 55 52 50 47 42 39 34 33 37 40 34 35 30 26 24 21 16 17 16 16 16 18 17 14 13 13 12
19 6 14 13 15 20 15 11 9 10 19 18 19 22 30 24 32 40 56 57 56 58 56 52 51 49 45 41 37 33 37 38 40 35 39 32 27 25 21 25 24 21 19 20 20 18 17 14 12
8 18 10 8 12 11 11 16 6 11 20 20 20 37 42 40 51 55 54 58 58 56 56 55 53 50 47 43 39 38 35 39 38 41 38 40 30 28 32 26 27 27 25 23 24 21 19 18 17
25 16 10 8 5 5 7 14 8 13 16 26 27 31 35 42 60 53 52 55 55 55 54 57 55 54 49 45 41 39 38 39 41 41 43 41 40 36 33 34 33 30 29 26 27 25 24 21 20
Wind_Direction
145 111 83 17 264 355 272 88 114 134 91 82 57 52 90 32 73 132 141 137 129 131 138 141 138 134 135 140 141 138 132 127 121 118 108 107 104 98 92 89 85 79 70 64 63 66 69 71 77
150 135 40 75 34 274 293 137 160 98 115 111 111 89 66 78 96 125 128 135 132 131 136 139 139 137 138 140 143 142 135 131 126 115 108 104 98 95 90 84 80 74 64 57 58 62 65 72 77
158 169 163 331 196 179 178 165 99 119 125 126 112 98 79 118 115 131 127 129 129 136 139 137 139 140 143 143 145 144 142 137 127 118 108 102 100 94 84 75 76 72 62 55 55 65 64 64 74
151 190 206 225 195 214 193 123 131 122 125 120 113 84 113 119 131 130 129 137 141 136 143 142 144 145 145 146 147 148 145 135 129 124 113 103 96 87 75 68 69 60 55 53 50 62 72 65 66
164 245 266 199 206 151 138 99 121 103 100 102 110 118 108 128 125 134 139 150 151 149 147 147 151 150 147 149 152 148 143 138 135 126 117 109 95 79 64 55 55 52 54 54 53 54 64 70 69
206 256 340 333 127 134 106 111 109 110 112 113 113 115 121 135 138 146 145 150 150 152 150 150 150 151 151 152 151 150 149 144 137 130 120 100 86 71 61 59 48 41 45 48 52 54 60 66 77
278 357 306 306 297 101 125 130 130 128 129 126 131 119 139 146 143 144 147 151 155 160 156 155 154 154 155 156 154 153 152 148 140 133 117 104 87 73 63 68 37 33 39 47 67 62 67 70 76
111 176 282 275 179 104 139 146 140 142 129 138 134 142 158 160 156 153 147 153 158 153 165 163 160 161 158 158 156 156 156 153 146 136 130 118 91 89 63 53 42 44 53 53 67 78 83 75 69
118 53 297 286 90 142 135 107 123 127 131 148 162 153 153 154 147 150 156 155 164 161 169 165 166 164 160 160 159 160 162 159 144 144 128 105 76 69 40 46 44 39 50 50 79 77 80 78 58
101 182 256 283 312 214 133 126 138 133 130 128 142 154 156 158 160 157 159 159 165 159 161 162 166 167 168 167 164 165 170 165 151 153 114 82 49 54 28 36 18 3 30 33 32 15 19 51 42
158 241 246 269 259 234 151 130 135 138 142 150 149 155 161 158 165 158 162 163 164 172 165 168 163 167 171 172 171 177 149 160 131 134 134 236 39 61 48 310 5 24 13 360 4 17 47 19 34
148 225 220 243 261 207 141 147 146 162 150 151 148 153 158 165 170 160 168 169 173 178 177 176 171 161 165 161 149 162 145 127 140 127 78 71 207 147 232 302 356 356 352 346 340 337 2 18 0
202 209 226 254 257 257 143 145 163 165 140 146 150 157 166 164 168 171 179 176 177 181 179 183 177 168 183 193 174 183 192 182 200 207 57 62 158 185 216 276 287 295 302 315 315 334 341 359 38
213 209 223 274 229 171 138 140 123 138 144 145 152 164 174 176 178 177 177 176 180 187 188 187 189 179 185 179 194 200 223 191 207 197 227 270 229 245 239 243 264 271 294 289 308 338 339 42 18
281 264 224 255 223 161 122 92 150 148 146 149 155 166 179 184 186 181 180 180 177 176 187 197 192 189 201 193 200 200 184 179 197 202 209 209 233 279 249 254 276 267 287 305 317 324 322 331 326
280 285 282 221 178 195 117 181 134 150 148 154 158 168 183 189 190 190 186 187 184 179 194 189 189 200 214 208 204 202 199 192 209 220 233 267 283 290 287 273 242 254 287 288 303 298 205 309 284
283 258 269 265 178 158 110 177 193 165 155 158 163 173 186 193 194 193 195 191 188 181 192 192 204 216 213 202 213 214 207 199 208 237 221 231 272 265 301 290 227 295 245 285 294 259 285 288 296
243 241 255 248 195 158 121 181 164 172 164 166 167 176 186 194 198 194 193 196 195 196 195 204 204 217 219 222 215 207 193 208 221 228 226 245 261 259 284 263 255 280 298 280 255 232 320 322 29
245 248 252 253 199 154 143 161 190 183 190 191 173 178 183 192 199 197 195 199 199 202 202 206 208 212 219 216 205 197 196 212 220 219 222 238 259 267 254 283 241 249 275 243 242 291 307 133 44
243 252 261 293 150 135 166 182 222 214 204 195 184 180 183 188 194 199 195 196 202 205 206 208 211 208 216 220 214 212 211 225 226 221 224 235 255 276 253 258 214 205 214 218 241 309 167 161 119
230 242 255 232 17 331 173 358 230 229 186 201 202 184 185 188 193 196 196 198 202 205 209 211 210 207 212 214 210 213 228 213 226 221 218 229 246 257 249 227 219 202 206 218 241 284 164 138 112
224 234 247 256 196 204 171 208 229 211 211 208 204 186 188 190 194 197 197 198 202 207 210 214 213 212 212 215 215 223 220 211 211 222 218 229 235 232 215 214 240 210 209 230 238 211 173 165 152
234 230 240 250 256 144 247 248 208 200 213 214 193 189 192 191 192 197 200 201 202 205 209 214 215 216 219 217 222 220 216 213 200 227 228 236 225 217 205 215 212 218 231 221 233 198 171 174 167
238 233 248 253 251 193 209 194 243 184 191 187 188 199 193 193 196 199 204 203 202 205 209 212 214 216 220 221 218 215 207 206 212 214 228 225 206 224 226 223 227 218 217 219 225 230 212 196 190
221 220 235 245 241 240 182 193 210 212 187 176 188 205 207 195 194 195 197 198 202 203 207 211 213 214 217 221 216 212 207 202 205 218 221 218 221 233 235 227 226 208 216 216 221 218 208 200 204
213 216 223 218 228 246 227 202 218 205 212 195 188 207 202 199 195 195 198 204 204 203 206 211 212 214 215 218 217 214 211 209 207 211 219 228 235 235 221 227 225 214 223 228 221 219 211 204 208
228 216 228 253 254 257 233 254 258 213 198 189 184 174 202 241 206 197 199 205 205 203 206 210 214 213 215 217 217 215 212 214 212 208 218 226 230 240 226 237 238 229 227 229 224 216 217 210 202
213 194 210 226 229 244 251 245 237 190 180 173 182 186 201 219 209 205 200 202 209 209 206 208 217 216 215 216 219 220 216 215 217 216 216 218 221 225 227 238 240 242 241 232 227 219 210 217 218
216 222 228 201 226 234 240 250 246 188 179 175 186 197 197 208 192 208 200 200 207 208 205 206 212 215 215 216 218 223 223 220 219 221 222 220 219 216 224 234 236 240 246 241 232 219 217 218 221
215 208 198 220 260 251 236 254 272 223 198 185 189 199 208 196 205 208 196 198 199 205 205 206 210 213 217 218 219 224 227 226 222 222 224 224 223 225 227 229 235 239 242 244 238 225 217 220 221